Chatham, MA

3:13 PM EDT on September 25, 2016 (GMT -0400)
Chatham Municipal

Weather History for KCQX - January, 2012

Change the Weather History Date:

Sunday, January 29, 2012

  Actual Average Record
Temperature  
Mean Temperature 39 °F -  
Max Temperature 42 °F 35 °F 50 °F (2002)
Min Temperature 36 °F 23 °F 10 °F (1977)
Degree Days  
Heating Degree Days 26    
Moisture  
Dew Point 23 °F    
Average Humidity 56    
Maximum Humidity 82    
Minimum Humidity 36    
Precipitation  
Precipitation 0.00 in - - ()
Sea Level Pressure  
Sea Level Pressure 30.06 in    
Wind  
Wind Speed 8 mph (WSW)    
Max Wind Speed 15 mph    
Max Gust Speed 25 mph    
Visibility 10 miles    
Events      
Averages and records for this station are not official NWS values.
T = Trace of Precipitation, MM = Missing Value Source: NWS Daily Summary

Daily Weather History Graph

Daily Weather History Graph

Search for Another Location

Airport or City:

Trip Planner

Search our weather history database for the weather conditions in past years. The results will help you decide how hot, cold, wet, or windy it might be!

Date:

Astronomy

Jan. 29, 2012 Rise Set
Actual Time 6:55 AM EST 4:51 PM EST
Civil Twilight 6:25 AM EST 5:20 PM EST
Nautical Twilight 5:52 AM EST 5:54 PM EST
Astronomical Twilight 5:19 AM EST 6:27 PM EST
Moon 9:38 AM EST (1/29) 11:40 PM EST (1/29)
Length of Visible Light 10h 55m
Length of Day
9h 55m
Waxing Crescent, 36% of the Moon is Illuminated
Jan 29
Waxing Crescent
Jan 30
First Quarter
Feb 7
Full
Feb 14
Last Quarter
Feb 21
New

Hourly Weather History & Observations

Time (EST) Temp. Windchill Dew Point Humidity Pressure Visibility Wind Dir Wind Speed Gust Speed Precip Events Conditions
12:52 AM 41.0 °F 36.4 °F 36.0 °F 82% 29.93 in 10.0 mi SW 6.9 mph - N/A   Clear
1:52 AM 42.1 °F 37.7 °F 34.0 °F 73% 29.94 in 10.0 mi Variable 6.9 mph 17.3 mph N/A   Clear
2:52 AM 39.9 °F 34.5 °F 30.0 °F 68% 29.96 in 10.0 mi West 8.1 mph - N/A   Clear
3:52 AM 39.0 °F 34.0 °F 26.1 °F 60% 29.98 in 10.0 mi Variable 6.9 mph - N/A   Partly Cloudy
4:52 AM 37.0 °F 31.6 °F 21.9 °F 54% 30.01 in 10.0 mi Variable 6.9 mph - N/A   Clear
5:52 AM 37.0 °F 29.8 °F 18.0 °F 46% 30.04 in 10.0 mi West 10.4 mph 18.4 mph N/A   Clear
6:52 AM 36.0 °F 31.1 °F 16.0 °F 44% 30.09 in 10.0 mi West 5.8 mph 19.6 mph N/A   Clear
7:52 AM 36.0 °F 29.6 °F 14.0 °F 41% 30.12 in 10.0 mi West 8.1 mph - N/A   Clear
8:52 AM 37.0 °F 31.0 °F 12.9 °F 37% 30.12 in 10.0 mi West 8.1 mph - N/A   Clear
9:52 AM 39.9 °F 34.5 °F 15.1 °F 36% 30.12 in 10.0 mi West 8.1 mph - N/A   Clear
10:52 AM 41.0 °F 33.9 °F 18.0 °F 40% 30.12 in 10.0 mi SW 12.7 mph 20.7 mph N/A   Clear
11:52 AM 39.9 °F 33.4 °F 19.0 °F 43% 30.09 in 10.0 mi SW 10.4 mph 20.7 mph N/A   Clear
12:52 PM 41.0 °F 33.1 °F 19.9 °F 43% 30.07 in 10.0 mi WSW 15.0 mph 21.9 mph N/A   Clear
1:52 PM 39.9 °F 32.9 °F 19.9 °F 45% 30.07 in 10.0 mi WSW 11.5 mph 25.3 mph N/A   Clear
2:52 PM 39.0 °F 31.4 °F 19.9 °F 46% 30.08 in 10.0 mi WSW 12.7 mph 24.2 mph N/A   Clear
3:52 PM 37.9 °F 30.0 °F 21.9 °F 53% 30.08 in 10.0 mi WSW 12.7 mph 19.6 mph N/A   Clear
4:52 PM 37.0 °F 29.3 °F 24.1 °F 59% 30.08 in 10.0 mi WSW 11.5 mph 19.6 mph N/A   Clear
5:52 PM 37.0 °F 30.4 °F 25.0 °F 62% 30.09 in 10.0 mi SW 9.2 mph - N/A   Clear
6:52 PM 37.0 °F 31.6 °F 26.1 °F 65% 30.09 in 10.0 mi SW 6.9 mph 16.1 mph N/A   Clear
7:52 PM 37.0 °F 31.6 °F 27.0 °F 67% 30.10 in 10.0 mi Variable 6.9 mph - N/A   Clear
8:52 PM 37.0 °F 33.3 °F 26.1 °F 65% 30.10 in 10.0 mi WSW 4.6 mph - N/A   Clear
9:52 PM 37.0 °F 32.4 °F 25.0 °F 62% 30.09 in 10.0 mi WSW 5.8 mph - N/A   Clear
10:52 PM 37.0 °F 33.3 °F 30.0 °F 76% 30.09 in 10.0 mi WSW 4.6 mph - N/A   Clear
11:52 PM 37.9 °F 33.5 °F 28.0 °F 68% 30.07 in 10.0 mi Variable 5.8 mph - N/A   Clear